Regional Weather Roundup
Issued by NWS Charleston, SC

Home | Current Version | Previous Version | Text Only | Print | Product List | Glossary On
Versions: 1 2 3 4 5 6 7 8 9 10 11 12 13 14 15 16 17 18 19 20 21 22 23 24 25 26 27 28 29 30 31 32 33 34 35 36 37 38 39 40 41 42 43 44 45 46 47 48 49 50
000
ASUS42 KCHS 202225
RWRCHS

REGIONAL WEATHER ROUNDUP
NATIONAL WEATHER SERVICE CHARLESTON SC
600 PM EDT SAT SEP 20 2014

NOTE: "FAIR" INDICATES FEW OR NO CLOUDS BELOW 12,000 FEET WITH NO
SIGNIFICANT WEATHER AND/OR OBSTRUCTIONS TO VISIBILITY.

NOT ALL STATIONS ARE QUALITY CONTROLLED BY THE NATIONAL
WEATHER SERVICE. USE DATA WITH CAUTION...ESPECIALLY
DEWPOINT OBSERVATIONS.

SCZ027-030-031-034>040-042>050-202300-
...SOUTH CAROLINA...

CITY           SKY/WX    TMP DP  RH WIND       PRES   REMARKS
N CHARLESTON   CLOUDY    74  66  76 N9        29.95F
WATERFRONT PRK NOT AVBL
FORT JOHNSON   NOT AVBL
MOUNT PLEASANT FAIR      72  68  88 N5        29.94F
JOHNS ISLAND   CLEAR     73  73 100 N9        29.95S
PINOPOLIS        N/A     77  66  69 N15       29.90S
MONCKS CORNER    N/A     75  68  78 N7        29.95F
SUMMERVILLE    NOT AVBL
BEAUFORT MCAS  CLOUDY    74  67  78 SW10      29.96F
BEAUFORT ARPT  FAIR      73  68  83 N10       29.95F
HILTON HEAD IS MOSUNNY   73  66  78 N14G22    29.96F
GEORGETOWN     NOT AVBL
WALTERBORO     CLOUDY    73  72  94 NW3       29.98R
ORANGEBURG     CLOUDY    76  61  59 N6        29.99F
BARNWELL       FAIR      77  63  61 N8        30.00S
AIKEN          FAIR      79  61  53 NE7       30.04F
MANNING        FAIR      73  64  73 N3        29.98S
KINGSTREE      NOT AVBL
COLUMBIA       PTSUNNY   79  56  45 N8G25     30.00F
SUMTER         CLOUDY    76  62  60 NE6       29.98F
FLORENCE       CLOUDY    77  61  57 N8        29.99F
MYRTLE BEACH   PTSUNNY   75  64  69 N12       29.95F
N MYRTLE BEACH CLOUDY    74  66  76 N8        29.95F

$$

GAZ063-065-086>088-099>101-113>116-118-119-134-136>141-150-202300-
...GEORGIA...

CITY           SKY/WX    TMP DP  RH WIND       PRES   REMARKS
SAVANNAH ARPT  CLOUDY    75  65  70 N10       29.97F
HUNTER AAF     CLOUDY    73  68  83 N12       29.94F
FORT STEWART   PTSUNNY   77  66  70 N10       29.95F
STATESBORO     NOT AVBL
SYLVANIA       MOCLDY    81  69  66 NE9       29.99F
CLAXTON        FAIR      77  68  73 NE5       29.97F
THOMSON        SUNNY     83  65  55 NE5       30.05F
AUGUSTA-BUSH   PTSUNNY   81  59  47 E10       29.99S
AUGUSTA-DANIEL PTSUNNY   82  58  43 N7        30.01F
SWAINSBORO     FAIR      82  64  54 NE10G16   30.00S
VIDALIA        MOSUNNY   81  64  57 NE14G20   29.99S
ALMA           MOSUNNY   81  63  54 VRB7      29.96F
WAYCROSS       NOT AVBL
JESUP          FAIR      79  70  73 NE9G17    29.96S
BRUNSWICK      CLOUDY    75  70  83 N6        29.95S
SAINT SIMONS   CLOUDY    74  70  87 N13       29.94R

$$

SCZ027-028-034-036>038-045-046-048>050-GAZ119-141-202300-
...LAKE AND SUPPLEMENTAL COASTAL OBSERVATIONS...

STATION/POSITION TIME  TEMP    WIND        PRES    WAVE   SWELL
                       AIR SEA DIR/SP/G            HT/PER HT/PER/DIR
                 (UTC) (F)     (DEG/KT/KT) (MB)    (FT/S) (FT/S/D)
UPR LAKE MARION  NOT AVBL
WINYAH BAY       2200   74      10/  6     1014.0S
LAKE MURRAY      2200   80      30/  2/  6 1015.6S
ACE BASIN NERRS  2200   72     360/  2     1014.0F
FORT PULASKI     2200   74     360/ 11/ 17 1014.6F
SAPELO ISLAND    2200   75      20/ 14     1014.0S

$$

ANZ835-935-AMZ111-154-330-350-352-354-374-450-454-472-202300-
...C-MAN AND BUOY OBSERVATIONS...

STATION/POSITION TIME  TEMP    WIND        PRES    WAVE   SWELL
                       AIR SEA DIR/SP/G            HT/PER HT/PER/DIR
                 (UTC) (F)     (DEG/KT/KT) (MB)    (FT/S) (FT/S/D)
FOLLY BEACH CMAN 2200   73     360/ 13/ 17 1014.2F
BUOY 41004       2200   74 82   50/ 27/ 33 1011.0F   8/ 8   3/ 8
BUOY 41008       2200   77 83   30/ 21/ 25 1012.5F   7/ 7
5E ST. MARYS GA  2200      84                N/A     7/ 6   2/ 70/11
FRYING PAN BUOY  NOT AVBL
BUOY 41025       2200   75     120/ 23/ 27 1015.1F   7/10   3/ 70/10
CAPE LOOKOUT NC  2200   73      50/ 16/ 17 1015.0F
BUOY 41002       2115   80 82  180/ 21/ 25 1010.7F   9/ 7
BUOY 41010       2200   79 84  240/ 14/ 16 1009.9F   6/ 8   5/ 60/ 8
BUOY 41012       NOT AVBL
ST AUGUSTINE FL  2200   78     360/ 21/ 25 1012.5R
CAPERS NEARSHORE 2100   74      10/ 16/ 17   N/A
FRIPP NEARSHORE  NOT AVBL


$$


USA.gov is the U.S. government's official web portal to all federal, state and local government web resources and services.